Location: B?dimalle
(17.1788°N, 80.5377°E)
Time: 16:37:41
(UTC+00:00)

Vanguard 1 - Pass Details

Date: 18 February 2026
Orbit: 653 x 3818 km, 34.2° (Epoch: 9 March)

Event Time Altitude Azimuth Distance (km) Brightness Sun altitude
Rises 13:15:57 0° 298° (WNW) 5,912 15.0 -9.1°
Reaches altitude 10° 13:19:29 10° 304° (WNW) 5,268 14.5 -9.9°
Maximum altitude 13:36:29 52° 18° (NNE) 4,065 13.0 -13.9°
Enters shadow 13:53:46 21° 84° (E) 5,983 13.4 -18.0°
